Location: Jackson
(42.2460°N, 84.4010°W)
Time: 14:18:01
(UTC-05:00)

Injun/Solrad 3 - Visible Passes

Search period start: 08 February 2026 00:00
Search period end: 18 February 2026 00:00
Orbit: 873 x 983 km, 66.8° (Epoch: 8 February)

Date Brightness Start Highest point End Pass type
(mag) Time Alt. Az. Time Alt. Az. Time Alt. Az.
8 Feb 10.1 20:13:37 10° NNE 20:13:55 10° NNE 20:13:55 10° NNE visible
8 Feb 10.5 21:57:23 10° NNW 21:57:33 11° NNW 21:57:33 11° NNW visible
9 Feb 9.9 20:23:20 10° N 20:24:51 13° NNE 20:24:51 13° NNE visible
9 Feb 10.5 22:08:15 10° NNW 22:08:30 11° NNW 22:08:30 11° NNW visible
10 Feb 9.8 20:33:47 10° N 20:35:49 16° NNE 20:35:49 16° NNE visible
10 Feb 10.6 22:19:14 10° NNW 22:19:28 11° NNW 22:19:28 11° NNW visible
11 Feb 9.6 20:44:24 10° N 20:46:50 20° N 20:46:50 20° N visible
11 Feb 10.7 22:30:18 10° NW 22:30:28 11° NW 22:30:28 11° NW visible
12 Feb 9.5 20:55:09 10° NNW 20:57:52 24° N 20:57:52 24° N visible
12 Feb 10.7 22:41:30 10° NW 22:41:31 10° NW 22:41:31 10° NW visible
13 Feb 9.7 19:21:18 10° N 19:23:59 13° NNE 19:25:19 12° NE visible
13 Feb 9.3 21:06:00 10° NNW 21:08:58 28° N 21:08:58 28° N visible
14 Feb 9.4 19:31:37 10° N 19:35:33 17° NE 19:36:28 17° NE visible
14 Feb 9.2 21:16:56 10° NNW 21:20:08 33° NNW 21:20:08 33° NNW visible
15 Feb 9.1 19:42:12 10° N 19:47:01 23° NE 19:47:42 23° NE visible
15 Feb 9.2 21:27:58 10° NNW 21:31:22 35° NW 21:31:22 35° NW visible
16 Feb 8.7 19:52:55 10° NNW 19:58:22 32° NE 19:59:01 31° ENE visible
16 Feb 9.3 21:39:08 10° NW 21:42:41 34° WNW 21:42:41 34° WNW visible
17 Feb 8.2 20:03:44 10° NNW 20:09:38 45° NE 20:10:26 43° ENE visible
17 Feb 9.6 21:50:29 10° NW 21:54:06 28° WNW 21:54:06 28° WNW visible
